Location: Kerangoff
(48.3422°N, 4.6070°W)
Time: 15:49:57
(UTC+00:00)

Daily predictions for brighter satellites

Satellite Brightness Start Highest point End
(mag) Time Altitude Azimuth Time Altitude Azimuth Time Altitude Azimuth
BREEZE M DEB (TANK) 4.3 17:38:28 10° W 17:42:02 58° S 18:02:03 10° ESE
Cosmos 1844 Rocket 3.9 17:39:11 10° N 17:43:33 23° NE 17:47:54 10° E
Cosmos 1892 Rocket 3.6 17:40:28 10° N 17:44:54 59° ENE 17:49:15 10° SSE
Tiangong 3.1 17:43:07 10° SW 17:45:35 21° S 17:48:04 10° ESE
Iridium 4 Rocket 4.1 17:43:37 10° NNE 17:47:44 31° E 17:52:08 10° SE
Cosmos 724 4.3 17:43:45 10° NW 17:49:46 87° NE 17:55:37 10° SE
Cosmos 1727 Rocket 4.3 17:47:25 10° NNW 17:53:37 75° W 17:59:45 10° S
AQUARIUS 4.4 17:50:27 10° S 17:54:56 77° WSW 17:59:28 10° NNW
Cosmos 1408 4.5 17:57:47 10° NE 17:59:15 12° ENE 18:00:10 11° E
Cosmos 2278 3.7 17:54:29 10° SSW 18:00:10 84° ESE 18:05:55 10° NNE
MOS 1-B 4.4 17:55:01 10° SSE 18:00:48 84° ENE 18:06:38 10° NNW
Cosmos 2278 Rocket 4.3 18:03:29 10° NNE 18:03:55 10° NNE 18:04:23 10° NNE
CZ-4 R/B 2.5 18:04:26 10° ESE 18:07:44 25° ENE 18:11:07 10° N
Cosmos 1626 Rocket 4.1 18:04:27 10° N 18:08:28 36° ENE 18:12:28 10° SE
SL-19 R/B 4.3 18:03:10 10° NNE 18:08:50 63° ESE 18:14:20 10° S
Cosmos 389 Rocket 3.8 18:06:29 10° SW 18:09:43 41° WNW 18:13:00 10° N
NOSS 2-3 (E) 4.2 18:08:09 10° S 18:11:45 32° ESE 18:15:31 11° ENE
ATLAS 5 CENTAUR R/B 1.7 18:08:41 10° SW 18:12:34 66° NW 18:17:01 10° NE
USA 215 3.4 18:06:19 10° NE 18:12:52 75° NNW 18:19:23 10° WSW
SL-16 R/B 2.6 18:07:54 10° S 18:13:12 42° ESE 18:18:30 10° NE
H-2A R/B 2.1 18:08:36 10° SSE 18:14:00 83° ENE 18:19:31 10° NNW
Cosmos 1300 3.0 18:11:44 10° SSE 18:15:20 43° E 18:18:58 10° NNE
USA 229 DEB 4.4 18:11:21 10° S 18:16:39 29° ESE 18:22:03 11° ENE
USA 229 4.4 18:11:29 10° S 18:16:46 29° ESE 18:22:07 11° ENE
H-2A R/B 3.0 18:13:39 10° SE 18:17:36 37° ENE 18:21:25 10° N
Cosmos 1825 4.3 18:17:40 10° NE 18:18:15 11° NE 18:18:15 11° NE
Meteor 1-16 Rocket 4.4 18:14:00 10° SSW 18:19:53 81° WNW 18:25:40 10° N
Cosmos 1605 Rocket 4.3 18:18:36 10° SSE 18:24:28 43° E 18:30:26 10° NNE
Cosmos 2322 Rocket 2.6 18:20:57 10° S 18:26:08 40° ESE 18:31:21 10° NE
CZ-4 R/B 4.3 18:22:11 10° SSE 18:26:17 69° ENE 18:30:25 10° N
SKYMED 2 3.5 18:22:06 10° NNE 18:26:27 66° ESE 18:30:46 10° S
Cosmos 304 Rocket 4.2 18:22:37 10° S 18:27:01 38° ESE 18:31:27 10° NE
YAOGAN 3 4.5 18:23:17 10° SSE 18:27:38 78° ENE 18:32:01 10° N
NOSS 8 (F) 4.1 18:26:35 10° SSW 18:29:57 64° SE 18:31:43 22° NE
Cosmos 1535 Rocket 4.5 18:24:57 10° S 18:31:08 66° E 18:37:27 10° NNE
YAOGAN 1 2.8 18:28:53 10° SE 18:32:59 44° ENE 18:37:07 10° N
Cosmos 1844 4.3 18:27:34 10° NNW 18:33:00 39° NE 18:36:47 18° ESE
Cosmos 1455 Rocket 3.4 18:28:46 10° SSW 18:33:10 69° WNW 18:37:38 10° N
Feng Yun 1-1 Rocket 4.3 18:28:01 10° SSE 18:33:32 64° ENE 18:39:13 10° N
H-2A R/B 3.0 18:33:54 22° ENE 18:34:57 24° E 18:38:21 10° SSE
ATLAS 3B R/B 3.9 18:29:35 10° W 18:35:41 37° NNW 18:42:05 10° NE
Cosmos 2360 Rocket 2.9 18:31:45 10° SSE 18:36:36 30° ESE 18:40:24 15° NE
Cosmos 405 Rocket 4.2 18:33:38 10° NNW 18:37:25 42° W 18:41:13 10° SSW
NOSS 3-1 (A) 3.7 18:34:08 10° S 18:38:57 37° ESE 18:42:42 18° ENE
Cosmos 2333 Rocket 4.0 18:36:56 10° SE 18:37:49 13° SE 18:37:49 13° SE
HJ-1C 3.7 18:41:54 33° ESE 18:42:41 39° ENE 18:45:45 10° N
BREEZE-M R/B 2.5 18:39:46 10° W 18:43:17 82° SSW 18:45:39 25° ESE
Cosmos 332 Rocket 3.8 18:40:42 10° S 18:45:28 56° ESE 18:50:15 10° NNE
ARGOS 3.2 18:41:44 10° SSE 18:47:09 84° WSW 18:52:37 10° NNW
Cosmos 1544 Rocket 3.6 18:42:57 10° S 18:47:25 83° W 18:51:56 10° N
Meteor 1-11 4.3 18:42:24 10° NNW 18:48:02 82° W 18:53:41 10° S
USA 267 4.3 18:41:51 10° SSE 18:48:05 45° SW 18:54:21 10° WNW
CZ-4B R/B 4.0 18:42:35 10° S 18:48:08 57° WSW 18:53:44 10° NNW
Landsat 5 3.7 18:45:54 10° NNE 18:50:21 80° WNW 18:54:50 10° SSW
MetOp-A 4.5 18:46:55 17° SE 18:50:44 42° ENE 18:55:46 10° N
Cosmos 2251 Rocket 3.5 18:45:51 10° NNW 18:51:04 63° ENE 18:55:31 14° SE
In-Cosmos 22 Rocket 4.0 18:48:20 10° N 18:53:37 62° ENE 18:58:52 10° SSE
CENTAUR R/B 4.2 18:48:36 10° NW 18:54:42 27° NNE 18:59:22 17° NE
Cosmos 2263 Rocket 3.9 18:49:55 10° NW 18:54:52 34° WSW 18:59:48 10° S
Cosmos 407 Rocket 4.1 18:50:28 10° N 18:55:24 36° ENE 18:56:48 31° E
Spot 2 4.0 18:51:40 10° SSE 18:55:50 85° WSW 19:00:15 10° NNW
Cosmos 1934 Rocket 4.1 18:49:54 10° SSW 18:55:58 76° W 19:02:04 10° N
Okean O Rocket 2.5 18:52:21 10° S 18:56:33 49° W 19:00:49 10° NNW
Cosmos 1140 Rocket 4.1 18:54:12 10° N 18:59:00 36° ENE 19:00:02 33° E
NOSS 2-3 (D) 3.4 18:55:01 10° SSW 18:59:03 76° SE 19:01:34 26° NE
Cosmos 2344 4.2 18:50:08 10° NW 18:59:06 81° NE 19:11:39 10° SE
X-37B 2.0 18:56:37 10° WSW 18:59:06 26° SSW 18:59:34 24° S
Cosmos 1980 Rocket 3.9 18:55:40 10° WSW 19:00:43 32° NW 19:05:50 10° NNE
SL-8 R/B 3.6 18:58:04 10° W 19:02:53 88° S 19:04:36 40° E
CSL-04 Debris 4.3 19:00:03 23° SE 19:03:07 50° ENE 19:08:22 10° N
NOSS 3-1 (C) 3.2 18:58:19 10° SW 19:03:37 89° SE 19:08:48 16° NE
Meteor 1-4 Rocket 2.3 19:00:19 10° S 19:03:47 86° E 19:07:14 10° NNE
CZ-2C R/B 3.0 19:00:26 10° N 19:06:02 71° WNW 19:11:31 10° SSW
Lacrosse 4 Rocket 1.8 19:01:54 10° NW 19:06:11 67° WSW 19:09:21 18° SSE
Cosmos 1892 2.5 19:02:57 10° N 19:06:44 72° ENE 19:07:58 40° SSE
Cosmos 1932 4.4 19:03:45 10° NW 19:10:00 75° NE 19:13:18 30° SE
Cosmos 1602 Rocket 3.6 19:06:47 10° NNW 19:11:09 75° W 19:15:27 10° S
SWARM A 4.4 19:08:05 10° S 19:11:23 72° W 19:14:42 10° N
NOSS 2-3 (C) 3.5 19:07:35 10° SW 19:11:40 82° NW 19:14:01 29° NE
Cosmos 371 Rocket 4.0 19:07:33 10° SW 19:12:18 53° WNW 19:17:07 10° NNE
CZ-4C R/B 4.0 19:09:39 10° N 19:12:54 45° WNW 19:16:03 10° SW
COSMO-SKYMED 1 3.9 19:10:22 10° N 19:14:28 41° WNW 19:18:33 10° SW
CSL-04 Rocket 3.7 19:12:58 31° SE 19:15:32 57° ENE 19:21:00 10° N
IRS-1C Rocket 4.0 19:11:28 10° SSE 19:16:44 83° ENE 19:22:02 10° NNW
Orbus 7S? 4.1 19:08:54 10° NW 19:17:54 90° W 19:19:15 47° SE
Okean-O 2.5 19:16:36 42° SE 19:18:02 72° ENE 19:22:28 10° N
Tiangong 3.1 19:19:19 10° WSW 19:21:19 21° SSW 19:21:19 21° SSW
Meteor 2-11 Rocket 4.4 19:20:50 10° S 19:26:52 62° E 19:32:57 10° NNE
Cosmos 2237 4.1 19:21:28 10° SSW 19:27:12 89° ESE 19:32:08 15° NNE
Cosmos 1844 Rocket 2.7 19:22:31 10° NNW 19:28:07 80° WSW 19:31:01 29° SSE
Cosmos 614 Rocket 4.3 19:23:17 10° NNW 19:28:19 63° WSW 19:32:14 17° S
Cosmos 1825 Rocket 3.5 19:29:45 10° N 19:33:36 67° NNE 19:33:36 67° NNE
Cosmos 1408 3.1 19:31:02 10° NNW 19:34:27 56° W 19:34:27 56° W
Cosmos 1190 Rocket 4.2 19:33:22 10° NNW 19:37:59 53° NE 19:37:59 53° NE
Cosmos 1758 Rocket 4.1 19:36:12 10° NNW 19:40:28 56° W 19:42:36 27° SSW
IRS-P2 Rocket 4.5 19:39:00 42° SSE 19:40:50 87° WSW 19:46:06 10° NNW
Meteor 2-10 Rocket 4.2 19:36:27 10° SSW 19:41:55 58° WNW 19:47:12 10° N
CZ-4 R/B 3.0 19:38:53 10° SSW 19:42:34 35° W 19:46:22 10° NNW
Cosmos 44 3.4 19:37:51 10° SW 19:43:17 89° SE 19:44:07 65° NE
Cosmos 1459 Rocket 3.8 19:39:54 10° S 19:46:00 64° E 19:52:04 10° NNE
Cosmos 2100 Rocket 3.9 19:39:47 10° S 19:46:03 70° E 19:52:23 10° NNE
Cosmos 2278 Rocket 3.3 19:44:52 10° NNW 19:48:42 29° NNE 19:48:42 29° NNE
Cosmos 1825 4.1 19:51:26 10° NNW 19:53:01 23° NNW 19:53:01 23° NNW
USA 215 4.0 19:52:54 31° NE 19:55:26 44° N 20:01:34 10° WNW
SL-16 R/B 3.5 19:52:06 10° WSW 19:57:22 38° NW 20:02:40 10° NNE
ATLAS 5 CENTAUR R/B 3.8 19:55:06 10° WNW 19:58:07 18° NNW 19:59:31 16° N
Cosmos 2173 Rocket 3.8 19:53:38 10° S 19:59:50 82° E 20:06:09 10° N
USA 229 DEB 3.8 20:00:36 10° SW 20:07:00 70° NW 20:09:32 40° NNE
USA 229 3.7 20:00:43 10° SW 20:07:07 71° NW 20:09:35 41° NNE
Cosmos 2322 Rocket 3.4 20:04:58 10° WSW 20:10:12 39° NW 20:14:53 13° NNE
H-2A R/B 3.4 20:11:03 36° WNW 20:11:03 36° WNW 20:14:50 10° SW
Cosmos 2360 Rocket 2.9 20:14:52 10° SW 20:20:20 50° NW 20:22:15 36° N
Cosmos 2333 Rocket 4.0 20:18:10 10° SSW 20:19:57 21° SSW 20:19:57 21° SSW
ATLAS 3B R/B 4.4 20:23:13 10° NW 20:28:28 23° N 20:30:41 20° NNE
NOSS 3-1 (A) 4.0 20:24:15 10° WSW 20:29:34 50° NW 20:30:12 48° NNW
CENTAUR R/B 3.6 20:39:47 10° NW 20:46:32 48° NNE 20:46:32 48° NNE
NOSS 3-2 (A) 4.5 20:42:05 10° NW 20:47:51 49° N 20:47:51 49° N
Cosmos 1943 Rocket 4.4 20:46:51 10° N 20:48:20 16° N 20:48:20 16° N
Cosmos 2278 Rocket 4.4 21:28:49 10° NW 21:30:33 20° NW 21:30:33 20° NW
